This demonstration page uses our WeatherBlox Daily Observations layout. Learn more.

36.17497, -115.13722

Hourly Observations for April 16, 2015

Temp ( °F °C ) Dew Point ( °F °C ) Humidity (%) Winds ( mph kmh ) Pressure ( in mb ) Visibility ( mi km ) Precip ( " mm )
12:53 am 00:53 Clear 55 12.8 4 -15.6 12 12 NNW 12 19 30.13 1020 10 16.0934 0 0
1:53 am 01:53 Clear 53 11.7 6 -14.4 15 15 NNW 17 28 30.11 1020 10 16.0934 0 0
2:53 am 02:53 Clear 52 11.1 7 -13.9 16 16 N 14 22 30.08 1019 10 16.0934 0 0
3:53 am 03:53 Clear 53 11.7 7 -13.9 15 15 N 14 22 30.09 1019 10 16.0934 0 0
4:53 am 04:53 Clear 51 10.6 7 -13.9 17 17 N 10 17 30.09 1019 10 16.0934 0 0
5:53 am 05:53 Clear 50 10 8 -13.3 18 18 N 13 20 30.09 1019 10 16.0934 0 0
6:53 am 06:53 Sunny 50 10 9 -12.8 19 19 N 12 19 30.11 1020 10 16.0934 0 0
7:53 am 07:53 Sunny 55 12.8 10 -12.2 16 16 NNW 18 30 30.11 1020 10 16.0934 0 0
8:53 am 08:53 Sunny 58 14.4 11 -11.7 15 15 NNW 22 35 30.12 1020 10 16.0934 0 0
9:53 am 09:53 Sunny 61 16.1 11 -11.7 14 14 N 17 28 30.12 1020 10 16.0934 0 0
10:53 am 10:53 Sunny 62 16.7 11 -11.7 13 13 NW 14 22 30.11 1020 10 16.0934 0 0
11:53 am 11:53 Sunny 64 17.8 11 -11.7 12 12 N 8 13 30.1 1019 10 16.0934 0 0
12:53 pm 12:53 Sunny 66 18.9 11 -11.7 11 11 NW 9 15 30.07 1018 10 16.0934 0 0
1:53 pm 13:53 Sunny 67 19.4 11 -11.7 11 11 ENE 3 6 30.05 1018 10 16.0934 0 0
2:53 pm 14:53 Partly Cloudy 69 20.6 10 -12.2 10 10 Calm 30.01 1016 10 16.0934 0 0
3:53 pm 15:53 Mostly Cloudy 69 20.6 11 -11.7 10 10 VRB 3 6 30 1016 10 16.0934 0 0
4:53 pm 16:53 Mostly Cloudy 70 21.1 11 -11.7 10 10 VRB 3 6 29.99 1016 10 16.0934 0 0
5:53 pm 17:53 Sunny 70 21.1 12 -11.1 10 10 ESE 8 13 29.99 1016 10 16.0934 0 0
6:53 pm 18:53 Sunny 68 20 12 -11.1 11 11 ESE 9 15 30 1016 10 16.0934 0 0
7:53 pm 19:53 Clear 66 18.9 13 -10.6 13 13 SSE 8 13 30 1016 10 16.0934 0 0
8:53 pm 20:53 Clear 65 18.3 14 -10 14 14 Calm 30.02 1017 10 16.0934 0 0
9:53 pm 21:53 Clear 62 16.7 17 -8.3 17 17 N 5 7 30.03 1017 10 16.0934 0 0
10:53 pm 22:53 Clear 60 15.6 17 -8.3 19 19 NNW 7 11 30.04 1017 10 16.0934 0 0
11:53 pm 23:53 Clear 59 15 16 -8.9 18 18 NE 8 13 30.08 1019 10 16.0934 0 0

Powered by AerisWeather